sat.trackr.live / text

‹ back to catalog

TRANSPORTER-17 OBJECT AW

NORAD 69913 · 2026-156AW

PAYLOAD ACTIVE UNKNOWN

§ Identity

Operator
Country
TBD
Launch date
2026-07-07
Launch site
AFWTR
Launch vehicle
Mass (kg)
RCS (m²)

External: N2YO · Heavens-Above · Gunter

§ Orbital elements

Epoch: 2026-09-20T04:08:18.948192Z

Period
96.58 min
Inclination
97.7496°
Eccentricity
0.0001154
Mean motion
14.91033018 rev/d
Perigee alt
593.9 km
Apogee alt
595.5 km
Semi-major
6,972.9 km
B*
8.2215e-5
RAAN
162.3188°
Arg perigee
265.8069°
Mean anomaly
94.3017°
Rev number
1,115

§ Raw data

TRANSPORTER-17 OBJECT AW1 69913U 26156AW  26263.17244153  .00000758  00000+0  82215-4 0  99952 69913  97.7496 162.3188 0001154 265.8069  94.3017 14.91033018 11150

JSON: /api/v1/satellites/69913 · /tle

For live sub-satellite position, see the globe view (requires WebGL).

§ Visibility from observer

Set your observer location to see the next 7 days of passes ≥ 10°. The values pass through the URL so the page stays shareable.

No JS? Fill the form by hand. The geolocation button needs JavaScript.